Reno - Stead, NV

2:04 AM PDT on October 17, 2019 (GMT -0700)
Reno - Stead

Weather History for KRTS - August, 2019

Change the Weather History Date:

Saturday, August 24, 2019

  Actual Average (KRNO) Record (KRNO)
Temperature  
Mean Temperature 74 °F -  
Max Temperature 91 °F 87 °F 98 °F (1985)
Min Temperature 57 °F 46 °F 33 °F (1944)
Cooling Degree Days 9    
Growing Degree Days 24 (Base 50)    
Moisture  
Dew Point 46 °F    
Average Humidity 39    
Maximum Humidity 63    
Minimum Humidity 20    
Precipitation  
Precipitation 0.00 in - - ()
Sea Level Pressure  
Sea Level Pressure 30.13 in    
Wind  
Wind Speed 8 mph (NW)    
Max Wind Speed 22 mph    
Max Gust Speed 26 mph    
Visibility 10 miles    
Events      
Averages and records for this station are not official NWS values.
T = Trace of Precipitation, MM = Missing Value Source: NWS Daily Summary

Daily Weather History Graph

Daily Weather History Graph

Search for Another Location

Airport or City:

Astronomy

Aug. 24, 2019 Rise Set
Actual Time 6:20 AM PDT 7:43 PM PDT
Civil Twilight 5:51 AM PDT 8:11 PM PDT
Nautical Twilight 5:18 AM PDT 8:44 PM PDT
Astronomical Twilight 4:42 AM PDT 9:20 PM PDT
Moon 12:16 AM PDT (8/24) 3:03 PM PDT (8/24)
Length of Visible Light 14h 19m
Length of Day
13h 22m
Last Quarter, 38% of the Moon is Illuminated
Aug 24
Last Quarter
Aug 30
New
Sep 5
First Quarter
Sep 13
Full
Sep 21
Last Quarter

Hourly Weather History & Observations

Time (PDT) Temp. Dew Point Humidity Pressure Visibility Wind Dir Wind Speed Gust Speed Precip Events Conditions
12:15 AM 69.8 °F 48.2 °F 46% 30.09 in 10.0 mi Calm Calm - N/A   Clear
12:35 AM 68.0 °F 48.2 °F 49% 30.09 in 10.0 mi NW 4.6 mph - N/A   Clear
12:55 AM 66.2 °F 48.2 °F 52% 30.09 in 10.0 mi WNW 5.8 mph - N/A   Clear
1:15 AM 66.2 °F 48.2 °F 52% 30.09 in 10.0 mi NNW 4.6 mph - N/A   Clear
1:35 AM 64.4 °F 46.4 °F 52% 30.09 in 10.0 mi NNW 8.1 mph - N/A   Clear
1:55 AM 64.4 °F 46.4 °F 52% 30.09 in 10.0 mi NW 6.9 mph - N/A   Clear
2:15 AM 62.6 °F 46.4 °F 55% 30.09 in 10.0 mi NNW 6.9 mph - N/A   Clear
2:35 AM 62.6 °F 46.4 °F 55% 30.09 in 10.0 mi NW 6.9 mph - N/A   Clear
2:55 AM 62.6 °F 46.4 °F 55% 30.09 in 10.0 mi North 6.9 mph - N/A   Clear
3:15 AM 60.8 °F 46.4 °F 59% 30.09 in 10.0 mi North 6.9 mph - N/A   Clear
3:35 AM 57.2 °F 44.6 °F 63% 30.10 in 10.0 mi NNW 6.9 mph - N/A   Clear
3:55 AM 59.0 °F 44.6 °F 59% 30.10 in 10.0 mi North 6.9 mph - N/A   Clear
4:15 AM 59.0 °F 44.6 °F 59% 30.10 in 10.0 mi North 6.9 mph - N/A   Clear
4:35 AM 60.8 °F 46.4 °F 59% 30.10 in 10.0 mi North 5.8 mph - N/A   Clear
4:55 AM 60.8 °F 46.4 °F 59% 30.11 in 10.0 mi Calm Calm - N/A   Clear
5:15 AM 57.2 °F 44.6 °F 63% 30.11 in 10.0 mi NNW 6.9 mph - N/A   Clear
5:35 AM 59.0 °F 44.6 °F 59% 30.11 in 10.0 mi North 6.9 mph - N/A   Clear
5:55 AM 59.0 °F 46.4 °F 63% 30.11 in 10.0 mi NNW 6.9 mph - N/A   Clear
6:15 AM 60.8 °F 46.4 °F 59% 30.12 in 10.0 mi NNW 5.8 mph - N/A   Clear
6:35 AM 57.2 °F 44.6 °F 63% 30.12 in 10.0 mi North 5.8 mph - N/A   Clear
6:55 AM 59.0 °F 46.4 °F 63% 30.13 in 10.0 mi NNW 5.8 mph - N/A   Clear
7:15 AM 59.0 °F 46.4 °F 63% 30.14 in 10.0 mi NNW 3.5 mph - N/A   Clear
7:35 AM 64.4 °F 48.2 °F 56% 30.14 in 10.0 mi NNW 4.6 mph - N/A   Clear
7:55 AM 66.2 °F 48.2 °F 52% 30.14 in 10.0 mi North 4.6 mph - N/A   Clear
8:15 AM 69.8 °F 48.2 °F 46% 30.14 in 10.0 mi NNW 4.6 mph - N/A   Clear
8:35 AM 73.4 °F 50.0 °F 44% 30.15 in 10.0 mi WNW 4.6 mph - N/A   Clear
8:55 AM 75.2 °F 50.0 °F 41% 30.14 in 10.0 mi Variable 3.5 mph - N/A   Clear
9:15 AM 77.0 °F 50.0 °F 39% 30.14 in 10.0 mi West 5.8 mph - N/A   Clear
9:35 AM 78.8 °F 50.0 °F 36% 30.15 in 10.0 mi West 11.5 mph - N/A   Clear
9:55 AM 80.6 °F 48.2 °F 32% 30.15 in 10.0 mi West 15.0 mph - N/A   Clear
10:15 AM 80.6 °F 48.2 °F 32% 30.14 in 10.0 mi West 13.8 mph - N/A   Clear
10:35 AM 82.4 °F 48.2 °F 30% 30.15 in 10.0 mi WSW 12.7 mph 18.4 mph N/A   Clear
10:55 AM 82.4 °F 46.4 °F 28% 30.15 in 10.0 mi WSW 15.0 mph - N/A   Clear
11:15 AM 84.2 °F 44.6 °F 25% 30.15 in 10.0 mi WSW 13.8 mph - N/A   Clear
11:35 AM 86.0 °F 44.6 °F 23% 30.14 in 10.0 mi WSW 12.7 mph 20.7 mph N/A   Clear
11:55 AM 86.0 °F 46.4 °F 25% 30.15 in 10.0 mi WSW 12.7 mph - N/A   Clear
12:15 PM 84.2 °F 46.4 °F 27% 30.14 in 10.0 mi WSW 8.1 mph 15.0 mph N/A   Clear
12:35 PM 86.0 °F 48.2 °F 27% 30.13 in 10.0 mi Variable 3.5 mph 12.7 mph N/A   Clear
12:55 PM 86.0 °F 48.2 °F 27% 30.13 in 10.0 mi Variable 3.5 mph 15.0 mph N/A   Clear
1:15 PM 86.0 °F 48.2 °F 27% 30.13 in 10.0 mi NNW 8.1 mph - N/A   Clear
1:35 PM 87.8 °F 48.2 °F 25% 30.12 in 10.0 mi Variable 6.9 mph 13.8 mph N/A   Clear
1:55 PM 89.6 °F 48.2 °F 24% 30.12 in 10.0 mi NNW 11.5 mph 18.4 mph N/A   Clear
2:15 PM 89.6 °F 46.4 °F 22% 30.12 in 10.0 mi NW 16.1 mph - N/A   Clear
2:35 PM 91.4 °F 46.4 °F 21% 30.11 in 10.0 mi NW 21.9 mph - N/A   Clear
2:55 PM 91.4 °F 46.4 °F 21% 30.11 in 10.0 mi WNW 17.3 mph - N/A   Clear
3:15 PM 91.4 °F 46.4 °F 21% 30.10 in 10.0 mi WNW 16.1 mph 21.9 mph N/A   Clear
3:35 PM 91.4 °F 44.6 °F 20% 30.10 in 10.0 mi WNW 16.1 mph 24.2 mph N/A   Clear
3:55 PM 91.4 °F 44.6 °F 20% 30.10 in 10.0 mi NW 20.7 mph - N/A   Clear
4:15 PM 91.4 °F 44.6 °F 20% 30.10 in 10.0 mi WNW 17.3 mph 25.3 mph N/A   Clear
4:55 PM 89.6 °F 44.6 °F 21% 30.10 in 10.0 mi WNW 17.3 mph 26.5 mph N/A   Clear
5:15 PM 89.6 °F 46.4 °F 22% 30.10 in 10.0 mi WNW 16.1 mph 23.0 mph N/A   Clear
5:35 PM 87.8 °F 46.4 °F 24% 30.11 in 10.0 mi WNW 15.0 mph 24.2 mph N/A   Clear
5:55 PM 87.8 °F 46.4 °F 24% 30.11 in 10.0 mi WNW 15.0 mph 24.2 mph N/A   Clear
6:15 PM 86.0 °F 46.4 °F 25% 30.12 in 10.0 mi NW 18.4 mph - N/A   Clear
6:55 PM 84.2 °F 44.6 °F 25% 30.12 in 10.0 mi WNW 16.1 mph 23.0 mph N/A   Clear
7:15 PM 82.4 °F 44.6 °F 26% 30.12 in 10.0 mi WNW 18.4 mph - N/A   Clear
7:35 PM 80.6 °F 44.6 °F 28% 30.12 in 10.0 mi WNW 17.3 mph - N/A   Clear
7:55 PM 78.8 °F 44.6 °F 30% 30.13 in 10.0 mi NW 13.8 mph 23.0 mph N/A   Clear
8:15 PM 77.0 °F 42.8 °F 29% 30.14 in 10.0 mi WNW 11.5 mph 19.6 mph N/A   Clear
8:35 PM 77.0 °F 42.8 °F 29% 30.14 in 10.0 mi WNW 13.8 mph - N/A   Clear
8:55 PM 75.2 °F 42.8 °F 31% 30.14 in 10.0 mi WNW 12.7 mph - N/A   Clear
9:15 PM 73.4 °F 44.6 °F 36% 30.16 in 10.0 mi Variable 6.9 mph - N/A   Clear
9:35 PM 73.4 °F 42.8 °F 33% 30.17 in 10.0 mi NW 9.2 mph - N/A   Clear
9:55 PM 71.6 °F 42.8 °F 35% 30.17 in 10.0 mi West 12.7 mph - N/A   Clear
10:15 PM 73.4 °F 41.0 °F 31% 30.17 in 10.0 mi WNW 12.7 mph 18.4 mph N/A   Clear
10:35 PM 69.8 °F 41.0 °F 35% 30.18 in 10.0 mi NW 8.1 mph - N/A   Clear
10:55 PM 69.8 °F 42.8 °F 38% 30.19 in 10.0 mi West 8.1 mph - N/A   Clear
11:15 PM 68.0 °F 42.8 °F 40% 30.19 in 10.0 mi NW 5.8 mph - N/A   Clear
11:35 PM 68.0 °F 42.8 °F 40% 30.19 in 10.0 mi WNW 5.8 mph - N/A   Clear
11:55 PM 66.2 °F 42.8 °F 43% 30.19 in 10.0 mi WNW 9.2 mph - N/A   Clear